EHI
3 4 5 5 5 6 6 5 3 2 1 1 0 0 0 0 0 0 0 1 2 3 3 2 1 2 5 6 6 7 7 6 5 4 3 3 3 3 3 4 4 5 6
3 4 6 6 6 6 6 5 2 2 1 1 0 0 0 0 0 0 0 0 1 3 3 3 2 2 5 6 6 7 7 6 5 4 3 3 3 3 3 4 4 4 4
3 4 6 8 8 7 6 3 2 2 2 2 1 0 0 0 0 0 0 0 1 2 3 3 2 2 3 5 6 7 7 6 5 4 3 2 2 3 3 4 5 4 4
3 4 6 9 10 8 7 4 2 2 3 3 2 1 0 0 0 0 0 0 2 3 3 3 2 2 3 4 5 6 6 5 4 3 1 0 1 3 3 4 5 5 5
2 4 7 10 10 9 8 6 4 4 3 3 3 1 0 0 0 0 0 0 1 2 4 3 3 4 4 4 5 4 4 3 3 2 1 0 1 3 4 4 4 5 6
2 5 8 10 10 10 9 8 8 6 5 4 4 2 1 0 0 0 0 0 0 1 3 4 4 4 3 4 4 3 2 2 2 1 1 1 2 4 5 4 4 4 5
2 5 8 10 11 11 10 9 9 9 7 6 5 4 3 1 0 0 0 0 0 0 2 3 3 2 2 3 4 3 2 2 2 1 3 4 4 5 6 5 4 4 4
1 3 7 10 12 14 12 9 9 10 9 8 7 5 4 2 1 0 0 1 0 0 0 1 1 0 1 2 3 2 2 2 1 1 4 5 6 6 7 6 6 5 3
1 2 4 7 11 13 12 11 10 10 9 9 8 6 4 2 1 0 0 0 0 0 0 0 1 0 1 2 3 3 3 3 2 1 3 6 8 9 7 5 5 5 3
2 2 2 3 6 8 9 10 10 9 8 9 9 8 6 3 2 0 0 1 1 1 1 1 3 2 3 4 5 6 6 5 3 1 3 7 11 11 7 5 4 3 2
2 2 1 0 1 2 5 8 9 9 8 8 9 9 8 5 2 0 1 3 3 2 2 3 4 5 6 6 8 11 9 5 2 2 4 8 10 9 7 5 4 3 1
1 1 0 0 1 1 3 6 8 8 8 9 9 10 9 6 2 1 3 4 5 6 5 4 5 6 5 5 8 11 9 4 2 2 5 8 8 7 7 6 5 3 2
1 0 0 1 2 3 4 6 6 6 7 8 9 9 8 6 4 4 5 6 7 8 7 7 7 5 3 4 5 6 5 3 2 3 6 8 8 6 6 6 6 4 3
0 0 2 4 6 8 10 9 6 4 4 6 8 8 7 8 8 8 10 12 11 9 9 9 8 5 3 3 4 5 5 4 3 3 6 8 8 7 7 6 6 5 5
0 0 3 7 10 12 16 14 8 5 4 5 7 7 8 10 13 13 13 15 14 11 10 9 7 5 3 4 6 7 8 6 5 5 6 8 9 9 7 7 6 6 6
2 2 4 8 13 15 16 15 11 7 6 7 8 10 10 12 16 15 14 14 13 12 10 9 8 6 5 6 8 10 10 8 7 7 8 9 10 10 9 8 7 6 6
6 6 6 9 14 15 13 13 11 8 7 8 11 14 14 14 16 17 14 12 13 13 12 11 10 7 6 6 7 9 9 8 8 9 10 11 11 11 10 8 7 7 7
10 10 8 8 12 14 13 12 10 8 7 8 12 16 17 16 17 17 14 12 13 15 15 13 11 9 7 7 7 8 9 9 9 9 11 12 12 12 11 9 8 8 8
13 13 11 9 10 13 14 13 11 9 8 8 12 17 19 18 16 16 14 13 13 14 15 14 13 11 10 8 7 7 9 10 9 8 8 10 12 13 11 9 8 8 7
17 18 16 14 14 15 16 15 12 10 9 10 13 18 19 16 15 15 15 16 15 14 15 15 14 14 13 9 6 5 7 9 8 7 4 4 7 10 10 9 8 7 6
21 25 25 22 21 20 18 16 14 11 10 11 13 17 17 15 15 16 16 18 17 15 15 17 17 15 12 9 7 5 6 6 8 7 5 3 4 6 8 10 10 9 8
26 29 31 29 27 22 16 13 14 13 11 11 12 15 17 16 15 16 17 19 19 16 16 18 18 15 11 9 9 7 6 5 5 6 7 7 6 7 8 11 13 14 14
25 28 31 32 29 21 15 13 14 15 13 11 13 18 19 17 15 17 20 21 20 17 15 14 15 15 12 10 9 7 5 3 2 3 5 8 11 11 9 9 12 15 16
21 24 30 34 31 24 19 17 17 17 14 13 15 20 21 20 18 19 22 24 22 17 11 9 10 12 12 10 8 8 6 2 0 1 2 6 10 12 8 6 9 12 13
18 22 31 38 36 31 24 21 21 20 17 15 17 20 21 22 21 21 25 27 23 16 10 8 9 11 13 11 9 8 5 2 1 0 1 4 7 9 8 6 7 10 12
17 21 31 40 41 35 27 23 23 22 19 18 18 19 21 22 22 22 26 28 24 17 12 11 12 14 15 12 9 7 4 2 1 1 1 3 5 6 7 8 8 10 12
Wind_Speed
10 11 11 11 10 10 10 9 9 9 9 9 9 9 10 10 10 11 10 11 11 10 10 10 10 10 10 10 10 10 10 11 11 11 11 11 10 10 9 10 9 9 12
13 12 11 10 10 10 9 9 9 9 9 10 10 9 10 10 10 10 10 10 10 10 9 9 9 9 10 10 9 9 10 11 12 12 12 10 9 9 8 9 9 7 10
13 12 11 10 9 9 9 9 9 9 9 9 9 9 9 9 9 9 9 9 9 9 9 8 9 9 10 10 9 9 10 11 11 11 11 7 8 9 9 10 11 10 9
13 11 10 10 9 9 8 8 8 9 9 9 9 9 8 8 8 9 8 8 9 9 9 9 10 10 10 10 10 9 9 8 8 7 5 6 7 9 9 10 10 9 9
11 11 11 10 9 9 8 8 8 8 8 8 8 8 8 8 8 8 8 8 8 8 8 9 10 10 9 9 10 9 8 7 6 5 4 6 7 10 10 9 9 9 8
11 11 11 10 9 9 9 8 8 8 8 8 8 8 8 8 7 7 7 7 7 8 8 9 10 10 9 9 9 8 7 5 4 3 3 6 7 9 10 9 8 8 8
11 12 11 10 9 9 9 8 8 7 7 7 7 7 7 7 7 7 7 7 7 7 8 9 10 10 9 9 8 7 5 3 4 3 4 6 7 9 9 9 8 8 7
10 11 11 11 10 9 9 8 8 7 7 7 7 6 6 6 6 7 7 7 7 7 8 9 9 9 9 8 7 6 5 4 4 5 5 6 9 9 9 8 8 8 7
8 9 10 10 9 9 9 8 8 7 7 6 6 6 6 6 6 6 6 6 7 7 8 8 9 9 9 8 7 6 6 5 3 2 6 7 9 10 9 8 8 8 7
6 6 7 8 8 8 8 9 9 8 8 7 7 6 6 6 6 6 6 6 7 7 8 8 9 8 8 8 8 7 6 5 3 3 4 7 10 10 9 8 7 7 7
6 5 6 6 6 6 8 9 9 9 8 7 6 7 6 4 5 5 5 7 7 7 8 8 9 10 9 9 9 7 5 3 1 2 4 9 10 9 9 8 7 6 7
5 5 5 6 4 4 5 6 5 6 6 4 3 4 3 2 2 5 6 7 7 7 7 8 10 10 7 5 7 8 3 3 2 3 5 11 10 9 8 7 6 6 6
5 5 6 5 4 4 3 2 2 2 3 4 4 3 2 2 2 3 2 4 4 5 3 5 8 5 5 3 3 4 3 2 2 3 6 10 9 9 8 7 6 5 5
5 6 7 6 4 3 2 2 1 2 2 3 3 2 2 2 1 2 1 2 2 2 2 3 3 4 3 3 4 4 3 2 3 4 5 10 8 8 7 7 6 5 4
6 6 7 5 4 3 2 1 1 1 2 3 2 2 2 2 2 2 2 1 2 2 2 2 3 3 3 2 3 3 3 3 4 4 4 8 8 6 6 6 6 6 5
6 6 5 5 5 3 2 1 1 2 2 2 2 3 3 2 3 2 2 1 2 2 2 2 3 2 2 2 3 3 4 4 4 5 5 6 7 6 6 6 6 5 5
6 6 4 5 5 3 2 1 1 2 2 2 3 3 2 3 3 2 2 2 2 2 2 2 2 2 2 3 3 3 3 4 4 4 4 4 4 6 6 6 6 5 5
6 5 3 4 5 3 2 1 1 1 2 2 3 3 3 3 3 2 2 2 2 2 2 2 2 2 2 2 2 2 3 3 3 4 3 3 4 4 5 6 6 5 5
6 5 3 3 4 3 3 2 1 1 2 2 2 2 3 3 3 3 3 2 2 2 2 2 3 2 2 2 2 2 2 3 2 3 3 3 4 4 4 5 6 5 5
7 6 4 4 3 3 2 1 1 1 2 2 2 3 4 3 3 2 2 2 2 2 2 2 3 1 2 2 2 3 2 2 2 2 2 2 3 3 4 4 4 3 4
7 6 4 3 3 2 1 1 1 1 2 2 3 4 4 3 3 3 2 2 3 3 2 2 2 2 2 2 2 2 2 2 2 2 2 2 2 2 3 4 3 2 2
7 6 5 4 3 2 1 1 1 1 2 3 3 4 4 3 2 3 3 2 3 3 2 1 1 1 1 2 1 2 2 1 1 1 2 2 2 2 2 3 3 3 2
8 7 5 4 4 2 2 1 1 1 1 2 3 3 3 3 3 2 3 2 2 2 2 1 0 1 1 1 0 1 2 2 1 1 1 2 2 2 1 2 3 3 3
8 8 6 5 4 3 2 2 2 2 2 2 2 3 3 3 3 3 3 2 2 1 1 1 1 1 1 1 1 1 1 2 2 2 1 1 2 2 1 1 2 3 3
9 9 7 6 4 3 2 2 1 2 2 2 3 3 3 3 3 3 3 2 2 2 1 1 0 1 1 0 0 0 1 1 1 3 2 2 1 1 2 2 2 3 3
9 9 9 7 5 4 3 3 2 2 2 2 3 3 3 3 3 3 3 2 2 1 1 1 1 1 0 1 0 0 1 1 1 2 2 2 2 1 2 2 2 2 3
Wind_Direction
101 107 109 103 100 99 97 95 93 91 90 91 91 94 97 99 101 104 105 108 112 116 120 122 121 126 134 134 132 131 133 133 132 129 125 121 118 118 119 122 117 108 109
107 111 113 107 102 99 99 99 96 95 93 92 94 96 97 100 103 106 110 113 118 120 120 120 122 126 130 130 129 128 133 137 138 136 130 122 117 115 113 111 104 109 113
109 116 115 108 104 102 102 102 102 100 97 95 98 100 101 102 106 111 114 117 120 122 122 124 127 129 131 133 131 130 133 138 143 146 144 131 121 116 111 106 107 110 111
108 112 111 112 111 109 107 105 103 101 99 101 103 106 108 108 108 115 119 121 125 126 126 127 130 131 133 137 139 139 140 144 154 166 160 137 130 124 120 117 117 118 116
105 110 113 116 116 116 113 110 107 103 103 105 107 109 111 114 113 115 118 119 121 125 127 128 131 131 133 138 144 146 148 155 169 181 142 123 122 131 130 130 127 125 124
107 109 115 120 118 119 118 116 113 111 111 112 112 112 114 117 118 118 120 122 125 127 128 130 132 133 135 139 143 148 154 165 184 172 143 124 123 136 140 141 138 135 133
106 114 123 127 125 123 122 123 120 118 119 118 118 118 121 123 122 123 123 124 127 130 132 135 140 139 142 145 147 156 164 186 204 146 112 114 127 140 143 145 143 144 143
107 116 128 136 135 132 131 130 127 126 126 126 127 128 129 129 128 129 128 129 133 137 137 140 142 146 150 155 161 169 182 216 197 144 131 127 139 144 147 151 151 155 158
105 117 134 141 142 143 141 142 139 136 136 138 139 139 140 138 136 133 128 133 142 146 147 148 149 153 158 165 173 183 199 223 245 160 146 136 146 148 150 157 160 165 170
107 110 117 131 143 147 147 154 152 149 151 153 155 156 155 153 149 144 141 144 151 154 155 156 157 161 168 174 186 197 212 238 220 167 129 138 150 155 159 160 167 176 181
105 113 121 119 135 137 138 144 157 160 164 167 166 172 169 167 154 148 143 150 156 162 166 169 169 169 174 185 196 203 217 233 187 127 119 138 146 152 161 165 173 185 191
121 123 115 114 120 121 124 140 164 156 154 167 144 160 164 153 128 127 139 151 159 166 170 182 180 177 182 184 192 198 220 212 161 125 128 142 145 149 156 165 177 185 191
132 126 110 99 85 89 101 138 137 129 149 144 135 141 135 130 123 126 140 158 171 172 175 167 171 180 186 172 171 176 199 187 125 117 130 142 146 150 157 165 174 180 184
116 105 103 101 84 65 69 88 119 128 137 121 126 133 128 116 113 122 129 129 151 158 145 137 149 157 157 161 163 160 169 127 107 108 129 140 143 150 160 165 172 174 170
113 104 103 105 97 82 61 24 107 95 96 109 110 113 104 114 97 97 99 109 127 124 129 126 122 133 142 154 146 138 132 118 113 117 124 138 139 149 159 165 168 170 172
114 110 107 109 103 99 98 77 74 106 105 111 107 103 109 110 107 108 117 118 121 112 95 111 129 131 128 124 119 124 124 125 123 126 136 143 151 159 159 161 166 171 172
116 110 117 117 107 105 106 115 108 123 130 129 118 110 113 111 114 120 113 111 99 103 110 103 87 107 119 121 117 114 113 118 121 125 135 143 154 163 163 166 169 168 167
115 107 106 110 108 107 93 70 62 97 108 107 114 121 120 109 116 121 108 113 117 116 111 113 104 89 95 106 111 115 117 120 123 132 128 139 149 156 167 171 170 169 175
110 110 103 83 102 112 105 102 111 111 105 103 110 121 123 120 115 112 111 114 121 104 96 98 94 101 120 110 116 120 113 118 125 127 128 138 131 133 144 153 161 169 178
121 114 108 93 84 95 105 105 126 128 121 118 111 107 109 112 114 109 121 111 108 99 90 92 104 108 119 124 118 105 108 115 123 112 123 112 115 129 137 139 157 177 181
122 119 114 107 97 88 80 111 123 120 120 120 115 113 116 114 113 112 95 103 96 95 86 108 119 140 142 133 117 110 104 111 114 119 123 107 117 124 125 134 146 150 153
128 125 125 128 122 119 125 140 130 108 117 109 104 109 107 115 121 123 120 115 108 114 111 106 129 158 149 145 142 135 124 86 54 130 132 136 127 117 115 134 137 127 126
145 144 143 134 128 134 147 132 98 99 77 87 104 105 101 107 114 103 107 108 118 137 136 144 165 181 172 180 141 119 133 144 142 90 124 110 116 108 113 125 125 126 129
151 147 135 134 133 135 150 145 145 128 119 114 108 107 112 113 110 112 115 120 117 107 122 196 104 287 209 191 157 141 128 126 138 132 99 120 128 114 106 111 121 121 122
155 148 143 138 136 136 141 131 144 120 121 116 116 120 123 127 125 123 124 129 131 133 137 129 35 343 308 271 165 143 137 151 143 138 150 150 120 121 140 130 114 117 117
156 151 147 142 142 147 152 139 122 113 107 117 131 144 152 138 132 133 130 123 125 143 164 180 209 204 271 312 294 138 157 163 152 138 133 146 134 113 103 106 117 122 126